| time (UTC) | temp F | wind direction | speed knots | gust knots | rain 1hr in | rain 24hr in | rain mn in | humidity % | barometer mb |
| 20260505034601 | 57 | 141 | 6.1 | 9.6 | 0.00 | 0.00 | 0.00 | 65 | 1015.0 |
| 20260505033046 | 57 | 154 | 6.1 | 9.6 | 0.00 | 0.00 | 0.00 | 66 | 1014.9 |
| 20260505031546 | 56 | 131 | 3.5 | 10.4 | 0.00 | 0.00 | 0.00 | 65 | 1014.9 |
| 20260505030048 | 57 | 121 | 6.1 | 10.4 | 0.00 | 0.00 | 0.00 | 64 | 1015.1 |
| 20260505024542 | 55 | 116 | 4.3 | 7.8 | 0.00 | 0.00 | 0.00 | 69 | 1015.2 |
| 20260505023045 | 54 | 330 | 7.0 | 8.7 | 0.00 | 0.00 | 0.00 | 69 | 1015.3 |
| 20260505021540 | 56 | 119 | 2.6 | 6.1 | 0.00 | 0.00 | 0.00 | 66 | 1015.5 |
| 20260505020052 | 56 | 135 | 4.3 | 7.8 | 0.00 | 0.00 | 0.00 | 67 | 1015.7 |
| 20260505014546 | 58 | 145 | 3.5 | 6.1 | 0.00 | 0.00 | 0.00 | 62 | 1015.8 |
| 20260505013044 | 59 | 330 | 4.3 | 6.1 | 0.00 | 0.00 | 0.00 | 60 | 1015.8 |
| 20260505011546 | 60 | 330 | 5.2 | 7.0 | 0.00 | 0.00 | 0.00 | 60 | 1015.8 |
| 20260505010057 | 60 | 113 | 5.2 | 7.0 | 0.00 | 0.00 | 0.00 | 60 | 1016.1 |
| 20260505004557 | 59 | 330 | 2.6 | 4.3 | 0.00 | 0.00 | 0.00 | 62 | 1016.3 |
| 20260505003045 | 58 | 330 | 3.5 | 5.2 | 0.00 | 0.00 | 0.00 | 66 | 1016.4 |
| 20260505001544 | 58 | 330 | 3.5 | 6.1 | 0.00 | 0.00 | 0.00 | 68 | 1016.6 |
| 20260505000042 | 59 | 56 | 4.3 | 6.1 | 0.00 | 0.00 | 0.00 | 69 | 1016.8 |
| 20260504234540 | 58 | 17 | 3.5 | 4.3 | 0.00 | 0.00 | 0.00 | 75 | 1017.0 |
| 20260504233047 | 58 | 22 | 4.3 | 5.2 | 0.00 | 0.00 | 0.00 | 79 | 1017.1 |
| 20260504231613 | 58 | 14 | 3.5 | 5.2 | 0.00 | 0.00 | 0.00 | 78 | 1017.1 |
| 20260504230044 | 58 | 10 | 3.5 | 5.2 | 0.00 | 0.00 | 0.00 | 80 | 1017.2 |
| 20260504224544 | 58 | 4 | 3.5 | 7.0 | 0.00 | 0.00 | 0.00 | 79 | 1017.3 |
| 20260504223039 | 58 | 8 | 5.2 | 7.0 | 0.00 | 0.00 | 0.00 | 78 | 1017.4 |
| 20260504221554 | 58 | 16 | 3.5 | 5.2 | 0.00 | 0.00 | 0.00 | 77 | 1017.4 |
| 20260504220043 | 58 | 19 | 3.5 | 4.3 | 0.00 | 0.00 | 0.00 | 74 | 1017.4 |
| 20260504214543 | 59 | 26 | 2.6 | 4.3 | 0.00 | 0.00 | 0.00 | 73 | 1017.5 |
| 20260504213043 | 59 | 0 | 0.0 | 2.6 | 0.00 | 0.00 | 0.00 | 72 | 1017.6 |
| 20260504211538 | 59 | 315 | 0.9 | 1.7 | 0.00 | 0.00 | 0.00 | 69 | 1017.6 |
| 20260504210049 | 60 | 315 | 0.9 | 2.6 | 0.00 | 0.00 | 0.00 | 68 | 1017.7 |
| 20260504204544 | 59 | 315 | 1.7 | 2.6 | 0.00 | 0.00 | 0.00 | 67 | 1017.8 |
| 20260504203044 | 59 | 282 | 0.9 | 2.6 | 0.00 | 0.00 | 0.00 | 69 | 1017.7 |
| 20260504201539 | 61 | 291 | 2.6 | 4.3 | 0.00 | 0.00 | 0.00 | 70 | 1017.6 |
| 20260504200046 | 61 | 272 | 1.7 | 3.5 | 0.00 | 0.00 | 0.00 | 63 | 1017.6 |
| 20260504194542 | 62 | 256 | 3.5 | 7.0 | 0.00 | 0.00 | 0.00 | 56 | 1017.6 |
| 20260504193047 | 63 | 223 | 1.7 | 6.1 | 0.00 | 0.00 | 0.00 | 51 | 1017.6 |
| 20260504191607 | 64 | 174 | 1.7 | 4.3 | 0.00 | 0.00 | 0.00 | 50 | 1017.5 |
| 20260504190040 | 64 | 204 | 2.6 | 8.7 | 0.00 | 0.00 | 0.00 | 48 | 1017.3 |
| 20260504184549 | 63 | 203 | 2.6 | 7.8 | 0.00 | 0.00 | 0.00 | 49 | 1017.2 |
| 20260504183045 | 63 | 197 | 0.9 | 3.5 | 0.00 | 0.00 | 0.00 | 52 | 1017.2 |
| 20260504181544 | 64 | 215 | 3.5 | 7.0 | 0.00 | 0.00 | 0.00 | 51 | 1017.0 |
| 20260504180043 | 65 | 247 | 4.3 | 7.0 | 0.00 | 0.00 | 0.00 | 47 | 1016.9 |
| 20260504174538 | 67 | 235 | 1.7 | 3.5 | 0.00 | 0.00 | 0.00 | 45 | 1016.9 |
| 20260504173045 | 68 | 245 | 1.7 | 5.2 | 0.00 | 0.00 | 0.00 | 48 | 1016.9 |
| 20260504171546 | 69 | 213 | 2.6 | 5.2 | 0.00 | 0.00 | 0.00 | 47 | 1017.0 |
| 20260504081553 | 72 | 229 | 1.7 | 6.1 | 0.00 | 0.00 | 0.00 | 34 | 1018.8 |
| 20260504044543 | 56 | 330 | 7.8 | 10.4 | 0.00 | 0.00 | 0.00 | 51 | 1017.6 |
| 20260504043044 | 56 | 330 | 7.0 | 9.6 | 0.00 | 0.00 | 0.00 | 51 | 1017.7 |
| 20260504041541 | 55 | 330 | 6.1 | 10.4 | 0.00 | 0.00 | 0.00 | 51 | 1017.6 |
| 20260504040041 | 55 | 330 | 7.8 | 11.3 | 0.00 | 0.00 | 0.00 | 52 | 1017.5 |